Regional Weather Roundup
Issued by NWS Memphis, TN

Home | Current Version | Previous Version | Text Only | Print | Product List | Glossary On
Versions: 1 2 3 4 5 6 7 8 9 10 11 12 13 14 15 16 17 18 19 20 21 22 23 24 25 26 27 28 29 30 31 32 33 34 35 36 37 38 39 40 41 42 43 44 45 46 47 48 49 50
000
ASUS44 KMEG 212100
RWRMEG
MEMPHIS CWA HOURLY WEATHER ROUNDUP
NATIONAL WEATHER SERVICE MEMPHIS TN
400 PM CDT TUE OCT 21 2014

...WEST TENNESSEE...

CITY           SKY/WX    TMP DP  RH WIND       PRES   REMARKS
MEMPHIS INTL   SUNNY     76  46  34 CALM      30.05S
NWS MEMPHIS      N/A     76 N/A N/A MISG        N/A
JACKSON        SUNNY     75  45  34 N7        30.04F
LEXINGTON      SUNNY     72  45  37 N10       30.03S
SAVANNAH       SUNNY     73  46  38 NW7       30.04S
DYERSBURG      SUNNY     73  43  33 N9G20     30.06S
UNION CITY     SUNNY     72  43  35 N8        30.04S
PARIS          SUNNY     70  45  40 NW8       30.05S


...EASTERN ARKANSAS...

CITY           SKY/WX    TMP DP  RH WIND       PRES   REMARKS
JONESBORO      SUNNY     75  45  34 N7        30.06S
WEST MEMPHIS   SUNNY     75  48  38 N7        30.04F
BATESVILLE     SUNNY     79  46  31 CALM      30.06S
WALNUT RIDGE   SUNNY     75  45  33 N3        30.06S
BLYTHEVILLE    SUNNY     78  46  32 N12       30.05F
NW BLYTHEVILLE SUNNY     73  46  38 NW6       30.05F
SEARCY         SUNNY     78  50  37 NE5       30.06S
STUTTGART      SUNNY     79  50  36 N5        30.05S
PINE BLUFF     MOSUNNY   78  54  43 N5        30.04S
MONTICELLO     MOSUNNY   79  55  43 CALM      30.03S


...NORTH MISSISSIPPI...

CITY           SKY/WX    TMP DP  RH WIND       PRES   REMARKS
TUPELO         SUNNY     76  46  34 NE13      30.02S
OLIVE BRANCH   SUNNY     73  46  38 N6        30.04F
CLARKSDALE     SUNNY     75  54  46 N9        30.04S
GREENWOOD      SUNNY     78  53  41 NW3       30.02S
STARKVILLE     FAIR      75  54  46 NW6       30.01S
GOLDEN TRIANGL PTSUNNY   79  54  41 NW12      30.00F


...SOUTHEAST MISSOURI...

CITY           SKY/WX    TMP DP  RH WIND       PRES   REMARKS
WEST PLAINS    SUNNY     73  42  32 NW3       30.09F
POPLAR BLUFF   SUNNY     76  43  30 NE7       30.05S
CAPE GIRARDEAU SUNNY     71  45  39 N12       30.07S


...NORTHWEST ALABAMA...

CITY           SKY/WX    TMP DP  RH WIND       PRES   REMARKS
MUSCLE SHOALS  SUNNY     76  43  30 NW7       30.03S


...MIDDLE TENNESSEE...

CITY           SKY/WX    TMP DP  RH WIND       PRES   REMARKS
NASHVILLE      MOSUNNY   72  45  37 N10       30.03S
CLARKSVILLE    SUNNY     70  45  40 N13       30.04S


...WESTERN KENTUCKY...

CITY           SKY/WX    TMP DP  RH WIND       PRES   REMARKS
PADUCAH        SUNNY     70  46  42 N9        30.06S
FORT CAMPBELL  SUNNY     68  45  43 N10       30.04S


...CENTRAL ARKANSAS...

CITY           SKY/WX    TMP DP  RH WIND       PRES   REMARKS
LITTLE ROCK    MOSUNNY   80  49  33 CALM      30.04F


SKY/WX REPORTED AS FAIR MEANS FEW OR NO CLOUDS BELOW
12 THOUSAND FEET.




USA.gov is the U.S. government's official web portal to all federal, state and local government web resources and services.